Terminal Aerodrome Forecast
Issued by NWS Springfield, MO

Home | Current Version | Previous Version | Text Only | Print | Product List | Glossary On
Versions: 1 2 3 4 5 6 7 8 9 10 11 12 13 14 15 16 17 18 19 20 21 22 23 24 25 26 27 28 29 30
080
FTUS43 KSGF 250520
TAFSGF
TAF
KSGF 250520Z 2506/2606 15016KT P6SM SCT006 OVC150
     FM250800 16012KT P6SM VCTS SCT015CB OVC100
     FM251000 17009KT 5SM -TSRA BR OVC015CB
     FM251500 16012KT P6SM VCSH BKN020
     FM251700 19013KT P6SM VCSH BKN040=

USA.gov is the U.S. government's official web portal to all federal, state and local government web resources and services.